|
Cosmos 2082 Rocket - Orbit
|
Kresge Environmental Education Center;
16:09:55
| Home | Info | Passes |
|
View from above orbital plane
|
View from above satellite
|
Ground track
|
The orbit data is extracted from the following two-line orbital elements,
1 20625U 90046B 13140.82001924 .00000350 00000-0 20715-3 0 4439
2 20625 071.0008 032.6351 0015267 214.9928 190.1824 14.14472923187366
| Epoch (UTC): | 20 May 2013 19:40:49 |
| Eccentricity: | 0.0015267 |
| inclination: | 71.0008° |
| perigee height: | 833 km |
| apogee height: | 855 km |
| right ascension of ascending node: | 32.6351° |
| argument of perigee: | 214.9928° |
| revolutions per day: | 14.14472923 |
| mean anomaly at epoch: | 190.1824° |
| orbit number at epoch: | 18736 |
The dashed part of the orbit path shows where the satellite is in the earth's shadow,
|
|